Change the Weather History Date:

Saturday, February 16, 2013

  Actual Average Record
Temperature  
Mean Temperature 39 °F 32 °F  
Max Temperature 59 °F 45 °F 75 °F (2011)
Min Temperature 19 °F 19 °F -17 °F (1993)
Degree Days  
Heating Degree Days 26 33  
Month to date heating degree days 481 546  
Since 1 July heating degree days 3817 4049  
Cooling Degree Days 0 0  
Month to date cooling degree days 0 0  
Year to date cooling degree days 0 0  
Moisture  
Dew Point 17 °F    
Average Humidity 50    
Maximum Humidity 77    
Minimum Humidity 23    
Precipitation  
Precipitation 0.00 in 0.02 in 0.34 in (1911)
Month to date precipitation 0.12 0.25  
Year to date precipitation 0.19 0.63  
Snow  
Snow 0.00 in 0.20 in - ()
Month to date snowfall 1.2 3.4  
Since 1 July snowfall 11.9 22.0  
Snow Depth 0.00 in    
Sea Level Pressure  
Sea Level Pressure 30.12 in    
Wind  
Wind Speed 15 mph (WNW)    
Max Wind Speed 29 mph    
Max Gust Speed 35 mph    
Visibility 10 miles    
Events      
T = Trace of Precipitation, MM = Missing Value Source: NWS Daily Summary

Daily Weather History Graph

Daily Weather History Graph

Search for Another Location

Airport or City:

Trip Planner

Search our weather history database for the weather conditions in past years. The results will help you decide how hot, cold, wet, or windy it might be!

Date:

Astronomy

Feb. 16, 2013 Rise Set
Actual Time 6:37 AM MST 5:25 PM MST
Civil Twilight 6:09 AM MST 5:52 PM MST
Nautical Twilight 5:38 AM MST 6:23 PM MST
Astronomical Twilight 5:07 AM MST 6:55 PM MST
Moon 9:53 AM MST (2/16) No Moon Set
Length of Visible Light 11h 42m
Length of Day
10h 48m
Waxing Crescent, 40% of the Moon is Illuminated
Feb 16
Waxing Crescent
Feb 17
First Quarter
Feb 25
Full
Mar 4
Last Quarter
Mar 11
New

Hourly Weather History & Observations

Time (MST) Temp. Windchill Dew Point Humidity Pressure Visibility Wind Dir Wind Speed Gust Speed Precip Events Conditions
12:53 AM 21.9 °F 9.8 °F 16.0 °F 78% 30.33 in 10.0 mi WSW 12.7 mph - N/A   Overcast
1:53 AM 25.0 °F 13.6 °F 17.1 °F 72% 30.30 in 10.0 mi WSW 12.7 mph - N/A   Overcast
2:53 AM 25.0 °F 13.6 °F 17.1 °F 72% 30.25 in 10.0 mi WSW 12.7 mph - N/A   Clear
3:53 AM 26.1 °F 14.5 °F 18.0 °F 71% 30.23 in 10.0 mi WSW 13.8 mph - N/A   Partly Cloudy
4:53 AM 26.1 °F 12.7 °F 16.0 °F 66% 30.20 in 10.0 mi WSW 18.4 mph - N/A   Clear
5:53 AM 26.1 °F 13.6 °F 16.0 °F 66% 30.20 in 10.0 mi WSW 16.1 mph - N/A   Clear
6:53 AM 26.1 °F 13.6 °F 15.1 °F 63% 30.22 in 10.0 mi West 16.1 mph - N/A   Clear
7:53 AM 34.0 °F 22.7 °F 18.0 °F 52% 30.21 in 10.0 mi West 19.6 mph - N/A   Clear
8:53 AM 44.1 °F 34.6 °F 18.0 °F 35% 30.19 in 10.0 mi NW 26.5 mph 32.2 mph N/A   Clear
9:53 AM 50.0 °F - 18.0 °F 28% 30.15 in 10.0 mi NW 27.6 mph 33.4 mph N/A   Clear
10:53 AM 54.0 °F - 19.0 °F 25% 30.14 in 10.0 mi NW 25.3 mph 33.4 mph N/A   Clear
11:53 AM 57.0 °F - 21.0 °F 25% 30.11 in 10.0 mi NW 23.0 mph 31.1 mph N/A   Clear
12:53 PM 57.0 °F - 19.9 °F 24% 30.08 in 10.0 mi NNW 19.6 mph 28.8 mph N/A   Clear
1:53 PM 57.0 °F - 19.0 °F 23% 30.05 in 10.0 mi NNW 19.6 mph - N/A   Partly Cloudy
2:53 PM 57.9 °F - 19.0 °F 22% 30.03 in 10.0 mi NNW 21.9 mph 27.6 mph N/A   Clear
3:53 PM 57.0 °F - 19.0 °F 23% 30.03 in 10.0 mi NNW 19.6 mph 23.0 mph N/A   Clear
4:53 PM 53.1 °F - 19.0 °F 26% 30.03 in 10.0 mi NNW 6.9 mph - N/A   Clear
5:53 PM 37.0 °F 34.5 °F 16.0 °F 42% 30.07 in 10.0 mi WNW 3.5 mph - N/A   Clear
6:53 PM 34.0 °F 31.0 °F 16.0 °F 48% 30.08 in 10.0 mi WNW 3.5 mph - N/A   Clear
7:53 PM 30.9 °F 24.3 °F 16.0 °F 54% 30.06 in 10.0 mi WSW 6.9 mph - N/A   Clear
8:53 PM 28.9 °F 22.8 °F 15.1 °F 56% 30.04 in 10.0 mi WSW 5.8 mph - N/A   Clear
9:53 PM 28.9 °F 21.1 °F 16.0 °F 58% 30.01 in 10.0 mi SW 8.1 mph - N/A   Clear
10:53 PM 30.0 °F 21.7 °F 15.1 °F 54% 29.99 in 10.0 mi WSW 9.2 mph - N/A   Clear
11:53 PM 28.0 °F 19.3 °F 15.1 °F 58% 29.98 in 10.0 mi WSW 9.2 mph - N/A   Clear